Change the Weather History Date:

Monday, January 13, 2014

  Actual Average Record
Temperature  
Mean Temperature 42 °F -  
Max Temperature 55 °F 48 °F 75 °F (2013)
Min Temperature 30 °F 31 °F 13 °F (1962)
Degree Days  
Heating Degree Days 22    
Moisture  
Dew Point 35 °F    
Average Humidity 72    
Maximum Humidity 96    
Minimum Humidity 44    
Precipitation  
Precipitation 0.09 in - - ()
Sea Level Pressure  
Sea Level Pressure 30.09 in    
Wind  
Wind Speed 5 mph (SSW)    
Max Wind Speed 13 mph    
Max Gust Speed -    
Visibility 10 miles    
Events Rain    
Averages and records for this station are not official NWS values.
T = Trace of Precipitation, MM = Missing Value Source: NWS Daily Summary

Daily Weather History Graph

Daily Weather History Graph

Search for Another Location

Airport or City:

Trip Planner

Search our weather history database for the weather conditions in past years. The results will help you decide how hot, cold, wet, or windy it might be!

Date:

Astronomy

Jan. 13, 2014 Rise Set
Actual Time 7:32 AM EST 5:34 PM EST
Civil Twilight 7:04 AM EST 6:01 PM EST
Nautical Twilight 6:33 AM EST 6:32 PM EST
Astronomical Twilight 6:02 AM EST 7:03 PM EST
Moon 3:47 PM EST (1/13) 5:20 AM EST (1/13)
Length of Visible Light 10h 57m
Length of Day
10h 01m
Waxing Gibbous, 95% of the Moon is Illuminated
Jan 13
Waxing Gibbous
Jan 15
Full
Jan 24
Last Quarter
Jan 30
New
Feb 6
First Quarter

Hourly Weather History & Observations

Time (EST) Temp. Windchill Dew Point Humidity Pressure Visibility Wind Dir Wind Speed Gust Speed Precip Events Conditions
12:54 AM 33.1 °F 27.7 °F 32.0 °F 96% 30.17 in 10.0 mi SSW 5.8 mph - N/A   Clear
1:54 AM 32.0 °F 27.5 °F 30.0 °F 92% 30.17 in 10.0 mi SSW 4.6 mph - N/A   Unknown
2:54 AM 32.0 °F 27.5 °F 30.0 °F 92% 30.16 in 10.0 mi SW 4.6 mph - N/A   Clear
3:54 AM 30.9 °F 25.2 °F 30.0 °F 96% 30.17 in 10.0 mi SW 5.8 mph - N/A   Clear
4:54 AM 30.9 °F 26.2 °F 30.0 °F 96% 30.17 in 10.0 mi SSW 4.6 mph - N/A   Clear
5:54 AM 34.0 °F 31.0 °F 30.9 °F 89% 30.17 in 10.0 mi South 3.5 mph - N/A   Clear
6:54 AM 30.9 °F 24.3 °F 30.0 °F 96% 30.17 in 10.0 mi SSW 6.9 mph - N/A   Clear
7:54 AM 34.0 °F 29.8 °F 30.9 °F 89% 30.16 in 10.0 mi SSW 4.6 mph - N/A   Clear
8:54 AM 39.9 °F 35.1 °F 36.0 °F 86% 30.17 in 10.0 mi SSW 6.9 mph - N/A   Clear
9:54 AM 46.0 °F 41.4 °F 36.0 °F 68% 30.16 in 10.0 mi SSW 9.2 mph - N/A   Clear
10:54 AM 52.0 °F - 37.0 °F 57% 30.16 in 10.0 mi SW 9.2 mph - N/A   Clear
11:54 AM 54.0 °F - 35.1 °F 49% 30.13 in 10.0 mi SW 12.7 mph - N/A   Clear
12:54 PM 55.9 °F - 34.0 °F 44% 30.08 in 10.0 mi SSW 10.4 mph - N/A   Clear
1:54 PM 55.9 °F - 34.0 °F 44% 30.06 in 10.0 mi SSW 11.5 mph - N/A   Clear
2:54 PM 55.9 °F - 36.0 °F 47% 30.05 in 10.0 mi SSW 6.9 mph - N/A   Clear
3:54 PM 55.9 °F - 36.0 °F 47% 30.04 in 10.0 mi South 4.6 mph - N/A   Clear
4:54 PM 55.9 °F - 36.0 °F 47% 30.03 in 10.0 mi SSW 3.5 mph - N/A   Clear
5:54 PM 52.0 °F - 34.0 °F 50% 30.01 in 10.0 mi Calm Calm - N/A   Clear
6:54 PM 50.0 °F - 36.0 °F 59% 30.01 in 10.0 mi Calm Calm - N/A   Clear
7:54 PM 46.9 °F - 37.0 °F 68% 30.01 in 10.0 mi Calm Calm - N/A   Scattered Clouds
8:54 PM 48.9 °F - 37.0 °F 64% 30.01 in 10.0 mi SW 3.5 mph - N/A   Clear
9:54 PM 48.0 °F - 39.0 °F 71% 30.00 in 8.0 mi Calm Calm - 0.01 in Rain Light Rain
10:54 PM 46.0 °F 44.8 °F 44.1 °F 93% 30.00 in 4.0 mi West 3.5 mph - 0.05 in Rain Light Rain
11:54 PM 46.0 °F - 43.0 °F 89% 29.96 in 10.0 mi Calm Calm - 0.03 in   Overcast